IRIDIUM 178

Last updated on Fri Sep 11 2026 00:03:06 GMT+0000 (Coordinated Universal Time)

1 56729U 23068V 26253.29687127 .00001006 00000+0 12959-3 0 9993 2 56729 86.6599 349.8169 0002513 93.3519 266.7990 14.80036638178953
UTC large
Height (km)
Speed (km/s)
/
Latitude / Longitude
Inclination (degrees)
Orbital Period (minutes)
Azimuth
Elevation
Range (km)
Doppler Factor

Next 0 passes for location: London (51.5072 / 0.1276)

No passes found over London.
IRIDIUM 178